AST137 UUDD-UAKK

Flight info

Callsign AST137
Flight time N/A
Altitude FL370
Route KOGOM L94 EKPIR M864 INKEB L94 UNORO T788 NAMUD L994 ATBAN T523 BEDKA
Aircraft A20N/M-L/C

Departure

Time N/A
Airport Domodedovo International Airport (UUDD)

Arrival

Time 2026-04-15 18:59
Airport Sary-Arka Airport (UAKK)
Time Latitude Longitude Altitude Speed Heading
2026-04-15 16:40 55.69987 48.16469 37002 ft 451 kts 112°
2026-04-15 16:41 55.68804 48.21620 36858 ft 452 kts 112°
2026-04-15 16:41 55.67621 48.26758 36613 ft 451 kts 112°
2026-04-15 16:41 55.66438 48.31885 36398 ft 451 kts 112°
2026-04-15 16:42 55.64059 48.42157 36615 ft 451 kts 112°
2026-04-15 16:42 55.62867 48.47286 36741 ft 451 kts 112°
2026-04-15 16:42 55.61674 48.52407 36843 ft 452 kts 112°
2026-04-15 16:43 55.59279 48.62661 36997 ft 452 kts 112°
2026-04-15 16:43 55.58079 48.67786 37898 ft 454 kts 112°
2026-04-15 16:43 55.56867 48.72944 37480 ft 455 kts 113°
2026-04-15 16:43 55.55661 48.78066 37291 ft 449 kts 113°
2026-04-15 16:44 55.54464 48.83135 37290 ft 449 kts 113°
2026-04-15 16:44 55.52046 48.93338 37289 ft 453 kts 113°
2026-04-15 16:45 55.49614 49.03556 37292 ft 452 kts 113°
2026-04-15 16:45 55.47177 49.13748 37291 ft 452 kts 113°
2026-04-15 16:46 55.44733 49.23917 37286 ft 452 kts 114°
2026-04-15 16:46 55.42282 49.34072 37284 ft 451 kts 114°
2026-04-15 16:47 55.39825 49.44210 37279 ft 451 kts 114°
2026-04-15 16:47 55.37358 49.54338 37277 ft 451 kts 114°
2026-04-15 16:48 55.34883 49.64451 37274 ft 451 kts 114°
2026-04-15 16:48 55.32396 49.74569 37281 ft 454 kts 114°
2026-04-15 16:49 55.29875 49.84774 37279 ft 460 kts 114°
2026-04-15 16:49 55.27316 49.95085 37319 ft 464 kts 114°
2026-04-15 16:50 55.24743 50.05407 37789 ft 457 kts 115°
2026-04-15 16:50 55.23479 50.10468 38079 ft 453 kts 115°
2026-04-15 16:50 55.22214 50.15512 38183 ft 453 kts 115°
2026-04-15 16:51 55.19678 50.25585 38361 ft 453 kts 115°
2026-04-15 16:51 55.17135 50.35645 38524 ft 453 kts 115°
2026-04-15 16:52 55.14583 50.45694 38663 ft 453 kts 115°
2026-04-15 16:52 55.12024 50.55723 38808 ft 453 kts 115°
2026-04-15 16:53 55.09458 50.65737 38938 ft 452 kts 115°
2026-04-15 16:53 55.06886 50.75731 39026 ft 452 kts 115°
2026-04-15 16:54 55.04392 50.85786 39100 ft 453 kts 110°
2026-04-15 16:54 55.02341 50.96161 39181 ft 453 kts 110°
2026-04-15 16:55 55.00287 51.06509 39264 ft 453 kts 110°
2026-04-15 16:55 54.98215 51.16844 39259 ft 453 kts 110°
2026-04-15 16:56 54.96130 51.27179 39256 ft 453 kts 110°
2026-04-15 16:56 54.94036 51.37501 39255 ft 453 kts 111°
2026-04-15 16:57 54.91934 51.47810 39253 ft 453 kts 111°
2026-04-15 16:57 54.89825 51.58096 39256 ft 453 kts 111°
2026-04-15 16:58 54.87707 51.68382 39258 ft 453 kts 111°
2026-04-15 16:58 54.85581 51.78650 39257 ft 453 kts 111°
2026-04-15 16:59 54.83445 51.88905 39254 ft 453 kts 111°
2026-04-15 16:59 54.81303 51.99145 39260 ft 453 kts 111°
2026-04-15 17:00 54.79150 52.09388 39250 ft 453 kts 111°
2026-04-15 17:00 54.76992 52.19603 39249 ft 452 kts 111°
2026-04-15 17:01 54.74826 52.29799 39250 ft 452 kts 111°
2026-04-15 17:01 54.72650 52.39990 39248 ft 452 kts 111°
2026-04-15 17:02 54.70468 52.50156 39243 ft 452 kts 111°
2026-04-15 17:02 54.68278 52.60314 39243 ft 452 kts 112°
2026-04-15 17:03 54.66080 52.70458 39238 ft 452 kts 112°
2026-04-15 17:03 54.63922 52.80624 39241 ft 452 kts 108°
2026-04-15 17:04 54.62290 52.91097 39238 ft 453 kts 106°
2026-04-15 17:04 54.60682 53.01575 39239 ft 453 kts 106°
2026-04-15 17:05 54.59057 53.12048 39234 ft 453 kts 106°
2026-04-15 17:05 54.57419 53.22526 39239 ft 454 kts 106°
2026-04-15 17:06 54.55770 53.33009 39233 ft 454 kts 106°
2026-04-15 17:06 54.54111 53.43489 39238 ft 455 kts 107°
2026-04-15 17:07 54.52440 53.53977 39238 ft 455 kts 107°
2026-04-15 17:07 54.50759 53.64464 39240 ft 456 kts 107°
2026-04-15 17:08 54.49071 53.74931 39226 ft 454 kts 107°
2026-04-15 17:08 54.47376 53.85375 39226 ft 455 kts 107°
2026-04-15 17:09 54.45671 53.95816 39226 ft 455 kts 107°
2026-04-15 17:09 54.43984 54.06080 39228 ft 455 kts 107°
2026-04-15 17:10 54.42264 54.16487 39218 ft 455 kts 107°
2026-04-15 17:10 54.40532 54.26907 39226 ft 455 kts 107°
2026-04-15 17:11 54.38791 54.37314 39217 ft 455 kts 107°
2026-04-15 17:11 54.37037 54.47736 39215 ft 455 kts 107°
2026-04-15 17:12 54.34397 54.63307 39211 ft 454 kts 107°
2026-04-15 17:12 54.32625 54.73678 39203 ft 455 kts 107°
2026-04-15 17:13 54.30845 54.84040 39206 ft 455 kts 107°
2026-04-15 17:13 54.29053 54.94405 39196 ft 455 kts 107°
2026-04-15 17:14 54.27253 55.04759 39198 ft 455 kts 107°
2026-04-15 17:14 54.25443 55.15115 39196 ft 455 kts 107°
2026-04-15 17:15 54.23622 55.25466 39192 ft 456 kts 107°
2026-04-15 17:15 54.21790 55.35824 39189 ft 456 kts 107°
2026-04-15 17:16 54.19948 55.46182 39190 ft 457 kts 107°
2026-04-15 17:16 54.18096 55.56543 39201 ft 457 kts 107°
2026-04-15 17:17 54.16233 55.66912 39191 ft 458 kts 108°
2026-04-15 17:17 54.14360 55.77281 39197 ft 459 kts 108°
2026-04-15 17:18 54.12476 55.87647 39194 ft 458 kts 108°
2026-04-15 17:18 54.10588 55.97976 39198 ft 457 kts 108°
2026-04-15 17:19 54.08684 56.08277 39206 ft 452 kts 105°
2026-04-15 17:19 54.06801 56.18457 39203 ft 453 kts 105°
2026-04-15 17:20 54.04903 56.28677 39194 ft 455 kts 106°
2026-04-15 17:20 54.02990 56.38921 39193 ft 455 kts 106°
2026-04-15 17:21 54.01071 56.49143 39209 ft 455 kts 106°
2026-04-15 17:21 53.99140 56.59373 39206 ft 455 kts 106°
2026-04-15 17:22 53.97200 56.69592 39204 ft 455 kts 106°
2026-04-15 17:22 53.95518 56.79911 39204 ft 454 kts 101°
2026-04-15 17:23 53.94070 56.90329 39216 ft 454 kts 101°
2026-04-15 17:23 53.92603 57.00739 39224 ft 455 kts 102°
2026-04-15 17:24 53.91118 57.11141 39228 ft 455 kts 102°
2026-04-15 17:24 53.89624 57.21535 39232 ft 455 kts 102°
2026-04-15 17:25 53.88120 57.31924 39232 ft 455 kts 102°
2026-04-15 17:25 53.86605 57.42303 39229 ft 455 kts 102°
2026-04-15 17:26 53.85080 57.52682 39228 ft 455 kts 102°
2026-04-15 17:26 53.83547 57.63047 39228 ft 455 kts 102°
2026-04-15 17:27 53.82004 57.73409 39240 ft 455 kts 102°
2026-04-15 17:27 53.80452 57.83759 39242 ft 455 kts 102°
2026-04-15 17:28 53.78890 57.94115 39235 ft 455 kts 102°
2026-04-15 17:28 53.77320 58.04454 39244 ft 455 kts 102°
2026-04-15 17:29 53.75637 58.14748 39245 ft 456 kts 107°
2026-04-15 17:29 53.73404 58.24757 39240 ft 457 kts 109°
2026-04-15 17:30 53.71155 58.34765 39245 ft 457 kts 109°
2026-04-15 17:30 53.68900 58.44762 39247 ft 457 kts 109°
2026-04-15 17:31 53.66635 58.54753 39245 ft 457 kts 109°
2026-04-15 17:31 53.64358 58.64741 39246 ft 457 kts 109°
2026-04-15 17:32 53.62073 58.74719 39239 ft 458 kts 109°
2026-04-15 17:32 53.59779 58.84692 39242 ft 458 kts 109°
2026-04-15 17:33 53.57474 58.94661 39244 ft 458 kts 109°
2026-04-15 17:33 53.55163 59.04616 39242 ft 458 kts 109°
2026-04-15 17:34 53.52841 59.14567 39242 ft 458 kts 109°
2026-04-15 17:34 53.50510 59.24511 39242 ft 458 kts 110°
2026-04-15 17:35 53.48170 59.34449 39242 ft 459 kts 110°
2026-04-15 17:35 53.45820 59.44379 39245 ft 459 kts 110°
2026-04-15 17:36 53.43462 59.54300 39247 ft 459 kts 110°
2026-04-15 17:36 53.41586 59.64451 39252 ft 456 kts 99°
2026-04-15 17:37 53.40855 59.74928 39241 ft 452 kts 89°
2026-04-15 17:37 53.40871 59.85437 39251 ft 452 kts 87°
2026-04-15 17:38 53.40877 59.95949 39248 ft 452 kts 88°
2026-04-15 17:38 53.40864 60.06471 39248 ft 453 kts 88°
2026-04-15 17:39 53.40840 60.17004 39261 ft 453 kts 88°
2026-04-15 17:39 53.40807 60.27541 39254 ft 453 kts 88°
2026-04-15 17:40 53.40765 60.38077 39264 ft 453 kts 88°
2026-04-15 17:40 53.40714 60.48621 39264 ft 454 kts 88°
2026-04-15 17:41 53.40654 60.59183 39266 ft 454 kts 88°
2026-04-15 17:41 53.40584 60.69739 39263 ft 454 kts 88°
2026-04-15 17:42 53.40504 60.80311 39269 ft 455 kts 88°
2026-04-15 17:42 53.40416 60.90895 39272 ft 455 kts 88°
2026-04-15 17:43 53.40317 61.01475 39274 ft 455 kts 89°
2026-04-15 17:43 53.40209 61.12069 39273 ft 456 kts 89°
2026-04-15 17:44 53.39614 61.22639 39270 ft 458 kts 96°
2026-04-15 17:44 53.38761 61.33192 39269 ft 458 kts 95°
2026-04-15 17:45 53.37912 61.43750 39268 ft 458 kts 95°
2026-04-15 17:45 53.37050 61.54302 39269 ft 459 kts 96°
2026-04-15 17:46 53.36175 61.64857 39268 ft 459 kts 96°
2026-04-15 17:46 53.35290 61.75416 39268 ft 459 kts 96°
2026-04-15 17:47 53.34395 61.85976 39263 ft 459 kts 96°
2026-04-15 17:47 53.33492 61.96526 39260 ft 459 kts 96°
2026-04-15 17:48 53.32577 62.07088 39263 ft 460 kts 96°
2026-04-15 17:48 53.31653 62.17650 39254 ft 460 kts 96°
2026-04-15 17:49 53.30720 62.28209 39254 ft 460 kts 96°
2026-04-15 17:49 53.29777 62.38768 39251 ft 460 kts 96°
2026-04-15 17:50 53.28824 62.49331 39251 ft 461 kts 97°
2026-04-15 17:50 53.27866 62.59889 39244 ft 461 kts 97°
2026-04-15 17:51 53.26902 62.70455 39248 ft 461 kts 97°
2026-04-15 17:51 53.25928 62.81013 39242 ft 461 kts 97°
2026-04-15 17:52 53.24942 62.91584 39237 ft 462 kts 97°
2026-04-15 17:52 53.23947 63.02150 39240 ft 462 kts 97°
2026-04-15 17:53 53.22942 63.12715 39239 ft 462 kts 97°
2026-04-15 17:53 53.21927 63.23291 39238 ft 462 kts 97°
2026-04-15 17:54 53.20902 63.33864 39238 ft 463 kts 97°
2026-04-15 17:54 53.19866 63.44440 39238 ft 463 kts 97°
2026-04-15 17:55 53.18706 63.54983 39240 ft 464 kts 103°
2026-04-15 17:55 53.16695 63.65207 39238 ft 466 kts 109°
2026-04-15 17:56 53.14411 63.75285 39238 ft 466 kts 109°
2026-04-15 17:56 53.12131 63.85378 39236 ft 466 kts 109°
2026-04-15 17:57 53.09839 63.95456 39233 ft 467 kts 109°
2026-04-15 17:57 53.07536 64.05534 39225 ft 467 kts 110°
2026-04-15 17:58 53.05222 64.15608 39228 ft 467 kts 110°
2026-04-15 17:58 53.02900 64.25669 39226 ft 468 kts 110°
2026-04-15 17:59 53.00566 64.35734 39227 ft 468 kts 110°
2026-04-15 17:59 52.98225 64.45782 39224 ft 468 kts 110°
2026-04-15 18:00 52.95875 64.55822 39219 ft 468 kts 110°
2026-04-15 18:00 52.93512 64.65870 39221 ft 468 kts 110°
2026-04-15 18:01 52.91145 64.75890 39220 ft 468 kts 110°
2026-04-15 18:01 52.88767 64.85909 39218 ft 468 kts 111°
2026-04-15 18:02 52.86378 64.95924 39217 ft 468 kts 111°
2026-04-15 18:02 52.83983 65.05922 39212 ft 469 kts 111°
2026-04-15 18:03 52.81578 65.15914 39210 ft 469 kts 111°
2026-04-15 18:03 52.79145 65.25888 39208 ft 469 kts 112°
2026-04-15 18:04 52.76613 65.35794 39203 ft 469 kts 112°
2026-04-15 18:04 52.74087 65.45689 39206 ft 469 kts 112°
2026-04-15 18:05 52.71657 65.55659 39208 ft 469 kts 111°
2026-04-15 18:05 52.69231 65.65619 39209 ft 469 kts 112°
2026-04-15 18:06 52.66780 65.75575 39212 ft 469 kts 112°
2026-04-15 18:06 52.64321 65.85507 39205 ft 470 kts 112°
2026-04-15 18:07 52.61849 65.95440 39207 ft 470 kts 112°
2026-04-15 18:07 52.59371 66.05357 39206 ft 470 kts 112°
2026-04-15 18:08 52.56885 66.15265 39207 ft 470 kts 112°
2026-04-15 18:08 52.54388 66.25169 39205 ft 470 kts 113°
2026-04-15 18:09 52.51884 66.35056 39201 ft 470 kts 113°
2026-04-15 18:09 52.49369 66.44944 39196 ft 470 kts 113°
2026-04-15 18:10 52.46847 66.54815 39198 ft 470 kts 113°
2026-04-15 18:10 52.44315 66.64679 39196 ft 470 kts 114°
2026-04-15 18:11 52.41776 66.74535 39193 ft 471 kts 114°
2026-04-15 18:11 52.39181 66.84357 39190 ft 471 kts 114°
2026-04-15 18:12 52.36556 66.94156 39186 ft 471 kts 115°
2026-04-15 18:12 52.33929 67.03953 39183 ft 471 kts 115°
2026-04-15 18:13 52.31294 67.13749 39182 ft 472 kts 115°
2026-04-15 18:14 52.27326 67.28427 39179 ft 472 kts 115°
2026-04-15 18:14 52.24668 67.38209 39178 ft 472 kts 115°
2026-04-15 18:15 52.22001 67.47981 39180 ft 473 kts 115°
2026-04-15 18:15 52.19322 67.57754 39174 ft 473 kts 115°
2026-04-15 18:16 52.16634 67.67518 39173 ft 474 kts 115°
2026-04-15 18:16 52.13933 67.77287 39175 ft 474 kts 115°
2026-04-15 18:17 52.11226 67.87039 39175 ft 474 kts 116°
2026-04-15 18:17 52.08509 67.96786 39175 ft 474 kts 116°
2026-04-15 18:18 52.05782 68.06526 39173 ft 474 kts 116°
2026-04-15 18:18 52.03047 68.16258 39169 ft 475 kts 116°
2026-04-15 18:19 52.00303 68.25977 39167 ft 475 kts 116°
2026-04-15 18:19 51.97462 68.35617 39164 ft 474 kts 121°
2026-04-15 18:20 51.93897 68.44528 39162 ft 472 kts 127°
2026-04-15 18:20 51.90154 68.53225 39162 ft 472 kts 127°
2026-04-15 18:21 51.86415 68.61925 39158 ft 472 kts 127°
2026-04-15 18:21 51.82675 68.70597 39145 ft 470 kts 127°
2026-04-15 18:22 51.78936 68.79238 39141 ft 470 kts 127°
2026-04-15 18:22 51.75190 68.87863 39139 ft 470 kts 127°
2026-04-15 18:23 51.71435 68.96479 39139 ft 470 kts 127°
2026-04-15 18:23 51.67674 69.05083 39134 ft 470 kts 127°
2026-04-15 18:24 51.63907 69.13672 39133 ft 470 kts 127°
2026-04-15 18:24 51.60138 69.22236 39126 ft 470 kts 128°
2026-04-15 18:25 51.56361 69.30790 39124 ft 470 kts 128°
2026-04-15 18:25 51.52579 69.39325 39122 ft 470 kts 128°
2026-04-15 18:26 51.48788 69.47856 39119 ft 470 kts 128°
2026-04-15 18:26 51.44994 69.56364 39110 ft 470 kts 128°
2026-04-15 18:27 51.41194 69.64857 39109 ft 470 kts 128°
2026-04-15 18:27 51.37386 69.73342 39106 ft 470 kts 128°
2026-04-15 18:28 51.33572 69.81810 39110 ft 470 kts 128°
2026-04-15 18:28 51.29753 69.90264 39107 ft 470 kts 128°
2026-04-15 18:29 51.25968 69.98756 39101 ft 471 kts 126°
2026-04-15 18:29 51.22388 70.07481 39095 ft 471 kts 126°
2026-04-15 18:30 51.18805 70.16193 39096 ft 471 kts 126°
2026-04-15 18:30 51.15192 70.24861 39090 ft 470 kts 126°
2026-04-15 18:31 51.11567 70.33506 39091 ft 470 kts 127°
2026-04-15 18:31 51.07936 70.42135 39086 ft 470 kts 127°
2026-04-15 18:32 51.04303 70.50743 38875 ft 469 kts 127°
2026-04-15 18:32 51.02492 70.55026 38565 ft 468 kts 127°
2026-04-15 18:32 51.00676 70.59310 37867 ft 470 kts 127°
2026-04-15 18:32 50.98854 70.63602 37215 ft 469 kts 127°
2026-04-15 18:33 50.97035 70.67878 36560 ft 467 kts 127°
2026-04-15 18:33 50.95224 70.72133 35913 ft 467 kts 128°
2026-04-15 18:33 50.93406 70.76393 35199 ft 468 kts 128°
2026-04-15 18:33 50.91558 70.80625 34609 ft 466 kts 129°
2026-04-15 18:34 50.89667 70.84773 34292 ft 466 kts 130°
2026-04-15 18:34 50.87746 70.88941 34082 ft 471 kts 130°
2026-04-15 18:34 50.85819 70.93127 33707 ft 470 kts 130°
2026-04-15 18:34 50.83903 70.97305 32688 ft 472 kts 130°
2026-04-15 18:35 50.81969 71.01522 31356 ft 479 kts 130°
2026-04-15 18:35 50.80000 71.05816 29831 ft 488 kts 130°
2026-04-15 18:35 50.77997 71.10180 28362 ft 492 kts 130°
2026-04-15 18:35 50.76002 71.14531 27340 ft 486 kts 130°
2026-04-15 18:36 50.74022 71.18792 26385 ft 480 kts 131°
2026-04-15 18:36 50.72034 71.22990 25580 ft 477 kts 131°
2026-04-15 18:36 50.70056 71.27146 24999 ft 472 kts 131°
2026-04-15 18:36 50.68102 71.31253 24458 ft 466 kts 131°
2026-04-15 18:37 50.66170 71.35310 23918 ft 461 kts 131°
2026-04-15 18:37 50.64258 71.39326 23350 ft 456 kts 131°
2026-04-15 18:37 50.62372 71.43283 22812 ft 450 kts 131°
2026-04-15 18:37 50.60512 71.47179 22295 ft 443 kts 131°
2026-04-15 18:38 50.58674 71.51026 21781 ft 437 kts 131°
2026-04-15 18:38 50.56861 71.54813 21272 ft 432 kts 131°
2026-04-15 18:38 50.55068 71.58552 20766 ft 426 kts 131°
2026-04-15 18:38 50.53294 71.62245 20264 ft 422 kts 131°
2026-04-15 18:39 50.51538 71.65894 19767 ft 417 kts 131°
2026-04-15 18:39 50.49800 71.69501 19274 ft 413 kts 130°
2026-04-15 18:39 50.48077 71.73073 18774 ft 409 kts 130°
2026-04-15 18:39 50.46366 71.76613 18292 ft 406 kts 130°
2026-04-15 18:40 50.44672 71.80117 17772 ft 402 kts 130°
2026-04-15 18:40 50.42996 71.83578 17295 ft 397 kts 130°
2026-04-15 18:40 50.41341 71.86993 16829 ft 392 kts 130°
2026-04-15 18:40 50.39706 71.90364 16353 ft 387 kts 130°
2026-04-15 18:41 50.38085 71.93699 15889 ft 383 kts 130°
2026-04-15 18:41 50.36479 71.97000 15440 ft 380 kts 130°
2026-04-15 18:41 50.34889 72.00264 14972 ft 376 kts 130°
2026-04-15 18:41 50.33312 72.03497 14518 ft 373 kts 130°
2026-04-15 18:42 50.31748 72.06700 14079 ft 370 kts 130°
2026-04-15 18:42 50.30195 72.09876 13622 ft 366 kts 130°
2026-04-15 18:42 50.28660 72.13012 13167 ft 362 kts 130°
2026-04-15 18:42 50.27141 72.16114 12729 ft 358 kts 130°
2026-04-15 18:43 50.25638 72.19178 12303 ft 354 kts 130°
2026-04-15 18:43 50.24151 72.22207 11885 ft 350 kts 130°
2026-04-15 18:43 50.22657 72.25173 11466 ft 346 kts 134°
2026-04-15 18:43 50.20965 72.27769 11058 ft 339 kts 144°
2026-04-15 18:44 50.19126 72.30046 10604 ft 337 kts 146°
2026-04-15 18:44 50.17289 72.32316 10484 ft 338 kts 145°
2026-04-15 18:44 50.15471 72.34574 10425 ft 331 kts 145°
2026-04-15 18:44 50.13708 72.36768 10329 ft 320 kts 145°
2026-04-15 18:45 50.12003 72.38890 10160 ft 310 kts 146°
2026-04-15 18:45 50.10326 72.40970 9799 ft 308 kts 146°
2026-04-15 18:45 50.08657 72.43031 9398 ft 305 kts 145°
2026-04-15 18:45 50.07010 72.45066 9047 ft 301 kts 145°
2026-04-15 18:46 50.05383 72.47075 8711 ft 297 kts 145°
2026-04-15 18:46 50.03780 72.49055 8369 ft 293 kts 145°
2026-04-15 18:46 50.02191 72.51016 8023 ft 290 kts 145°
2026-04-15 18:46 50.00623 72.52952 7696 ft 287 kts 145°
2026-04-15 18:47 49.99067 72.54868 7365 ft 284 kts 144°
2026-04-15 18:47 49.97529 72.56761 7042 ft 281 kts 144°
2026-04-15 18:47 49.96004 72.58634 6698 ft 279 kts 144°
2026-04-15 18:47 49.94494 72.60486 6394 ft 276 kts 144°
2026-04-15 18:48 49.92999 72.62317 6063 ft 272 kts 143°
2026-04-15 18:48 49.91525 72.64118 5748 ft 268 kts 142°
2026-04-15 18:48 49.90070 72.65893 5441 ft 264 kts 141°
2026-04-15 18:48 49.88636 72.67641 5129 ft 261 kts 141°
2026-04-15 18:49 49.87225 72.69362 4812 ft 257 kts 140°
2026-04-15 18:49 49.85835 72.71054 4517 ft 253 kts 139°
2026-04-15 18:49 49.84469 72.72723 4228 ft 248 kts 138°
2026-04-15 18:49 49.83133 72.74354 4051 ft 244 kts 138°
2026-04-15 18:50 49.81769 72.76028 3998 ft 254 kts 138°
2026-04-15 18:50 49.80395 72.77709 4004 ft 251 kts 138°
2026-04-15 18:50 49.79022 72.79385 4014 ft 252 kts 138°
2026-04-15 18:50 49.77646 72.81064 4010 ft 252 kts 138°
2026-04-15 18:51 49.76270 72.82743 4005 ft 253 kts 138°
2026-04-15 18:51 49.74893 72.84420 3987 ft 253 kts 138°
2026-04-15 18:51 49.73514 72.86100 3997 ft 253 kts 138°
2026-04-15 18:51 49.72136 72.87779 4002 ft 253 kts 138°
2026-04-15 18:52 49.70761 72.89451 3992 ft 252 kts 138°
2026-04-15 18:52 49.69383 72.91123 3979 ft 252 kts 138°
2026-04-15 18:52 49.68002 72.92796 3984 ft 253 kts 138°
2026-04-15 18:52 49.66622 72.94469 3984 ft 253 kts 138°
2026-04-15 18:53 49.65243 72.96138 3978 ft 252 kts 138°
2026-04-15 18:53 49.63864 72.97805 3982 ft 253 kts 139°
2026-04-15 18:53 49.62392 72.99296 3978 ft 255 kts 144°
2026-04-15 18:53 49.60884 73.00712 3983 ft 255 kts 144°
2026-04-15 18:54 49.59373 73.02141 3975 ft 255 kts 144°
2026-04-15 18:54 49.57978 73.03757 3971 ft 249 kts 126°
2026-04-15 18:54 49.57336 73.06147 3975 ft 241 kts 92°
2026-04-15 18:54 49.57535 73.08596 3974 ft 225 kts 72°
2026-04-15 18:55 49.58130 73.10731 3978 ft 210 kts 63°
2026-04-15 18:55 49.58825 73.12604 3971 ft 193 kts 61°
2026-04-15 18:55 49.59485 73.14260 3972 ft 168 kts 61°
2026-04-15 18:55 49.60049 73.15672 3956 ft 144 kts 61°
2026-04-15 18:56 49.60545 73.16911 3990 ft 131 kts 61°
2026-04-15 18:56 49.61024 73.18114 3864 ft 131 kts 61°
2026-04-15 18:56 49.61494 73.19286 3685 ft 127 kts 61°
2026-04-15 18:56 49.61956 73.20443 3520 ft 126 kts 62°
2026-04-15 18:57 49.62414 73.21589 3349 ft 126 kts 61°
2026-04-15 18:57 49.62868 73.22724 3186 ft 123 kts 61°
2026-04-15 18:57 49.63315 73.23843 3007 ft 123 kts 60°
2026-04-15 18:57 49.63765 73.24968 2833 ft 124 kts 60°
2026-04-15 18:58 49.64214 73.26118 2617 ft 126 kts 61°
2026-04-15 18:58 49.64651 73.27285 2512 ft 125 kts 58°
2026-04-15 18:58 49.65136 73.28409 2357 ft 126 kts 57°
2026-04-15 18:58 49.65576 73.29521 2107 ft 120 kts 60°
2026-04-15 18:59 49.66002 73.30573 1931 ft 111 kts 58°
2026-04-15 18:59 49.66440 73.31668 1835 ft 118 kts 58°
2026-04-15 18:59 49.66838 73.32659 1775 ft 86 kts 58°
2026-04-15 18:59 49.66942 73.32925 1772 ft 10 kts 59°
2026-04-15 19:00 49.66980 73.33022 1772 ft 11 kts 59°
2026-04-15 19:00 49.67021 73.33130 1773 ft 12 kts 57°
2026-04-15 19:00 49.67073 73.33230 1774 ft 11 kts 27°
2026-04-15 19:00 49.67139 73.33195 1774 ft 11 kts 328°
2026-04-15 19:01 49.67213 73.33125 1774 ft 14 kts 328°
2026-04-15 19:01 49.67294 73.33072 1776 ft 0 kts 339°
2026-04-15 19:01 49.67296 73.33067 1775 ft 0 kts 313°
2026-04-15 19:01 49.67300 73.33057 1773 ft 3 kts 305°
2026-04-15 19:02 49.67322 73.33021 1774 ft 6 kts 327°
2026-04-15 19:02 49.67334 73.33009 1773 ft 0 kts 326°